Regional Weather Roundup
Issued by NWS

Home | Current Version | Previous Version | Graphics & Text | Print | Product List | Glossary On
Versions: 1 2 3 4 5 6 7 8 9 10 11 12 13 14 15 16 17 18 19 20 21 22 23 24 25 26 27 28 29 30 31 32 33 34 35 36 37 38 39 40 41 42 43 44 45 46 47 48 49 50
000
ASUS45 KBOI 280210
RWRID
WEATHER ROUNDUP FOR IDAHO
NATIONAL WEATHER SERVICE BOISE ID
700 PM MST THU NOV 27 2014

NOTE: "FAIR" INDICATES FEW OR NO CLOUDS BELOW 12000 FEET
WITH NO SIGNIFICANT WEATHER AND/OR OBSTRUCTIONS TO VISIBILITY

IDZ012-014-280300-
SOUTHWEST IDAHO


CITY           SKY/WX    TMP DP  RH WIND       PRES   REMARKS
BOISE          CLOUDY    47  43  86 CALM      30.02F
CALDWELL       NOT AVBL
MOUNTAIN HOME  CLOUDY    43  43 100 E5        30.02F
$$

IDZ016-017-280300-
SOUTHCENTRAL IDAHO


CITY           SKY/WX    TMP DP  RH WIND       PRES   REMARKS
BURLEY         MOCLDY    45  33  63 W6        30.06F
JEROME         MOCLDY    45  31  58 CALM      30.07F
TWIN FALLS     MOCLDY    53  32  44 S14       30.06F
$$

IDZ019>023-280300-
SOUTHEAST IDAHO


CITY           SKY/WX    TMP DP  RH WIND       PRES   REMARKS
IDAHO FALLS    CLOUDY    50  29  44 S15       30.08F
POCATELLO      CLEAR     52  25  35 S12       30.10S
REXBURG        CLOUDY    49  28  44 S13       30.07S
$$

IDZ006-010-011-018-031-032-280300-
CENTRAL IDAHO MOUNTAINS


CITY           SKY/WX    TMP DP  RH WIND       PRES   REMARKS
MCCALL         CLOUDY    38  36  92 CALM      30.04F
HAILEY         CLEAR     41  34  75 NW7       30.11F
STANLEY          N/A     36  32  85 CALM      30.11F
SALMON         CLOUDY    48  37  66 CALM      30.01S
CHALLIS        CLOUDY    46  34  62 CALM      30.04F
$$

IDZ002-004-006-007-026-280300-
NORTHERN IDAHO


CITY           SKY/WX    TMP DP  RH WIND       PRES   REMARKS
LEWISTON       CLOUDY    58  45  62 S20G29    29.84F
LOWELL           N/A     43  41  93 N3        29.97F
COEUR D`ALENE  CLOUDY    52  43  71 W10       29.76F
MULLAN PASS    LGT RAIN  36  36 100 SW18G29   29.81F FOG     WCI  26
$$



USA.gov is the U.S. government's official web portal to all federal, state and local government web resources and services.